• In Latvia
  • List of Countries
  • For 7 days
  • Water Temperature
  • Satellite Maps
  • Weather Map
  • Weather Widgets
  • user-avatar
    Login

    Hourly Weather Severnyy

    Today, 18 July, Wednesday

    Time Temperature Precipitation Wind Pressure Humidity
    00:00 +19°C° 0.4 mm 5 mps 736 mmHg 95%
    01:00 +19°C° 0.1 mm 5 mps 735 mmHg 95%
    02:00 +19°C° 0.1 mm 5 mps 735 mmHg 96%
    03:00 +17°C° 0 mm 5 mps 735 mmHg 96%
    04:00 +19°C° 0.5 mm 5 mps 735 mmHg 96%
    05:00 +19°C° 0.5 mm 5 mps 735 mmHg 95%
    06:00 +20°C° 0.5 mm 4 mps 735 mmHg 94%
    07:00 +21°C° 0.7 mm 4 mps 735 mmHg 91%
    08:00 +22°C° 0.7 mm 4 mps 735 mmHg 88%
    09:00 +23°C° 0 mm 4 mps 735 mmHg 86%
    10:00 +23°C° 0.8 mm 4 mps 735 mmHg 84%
    11:00 +25°C° 0.8 mm 3 mps 735 mmHg 81%
    12:00 +25°C° 0.8 mm 3 mps 735 mmHg 79%
    13:00 +25°C° 0.8 mm 3 mps 735 mmHg 79%
    14:00 +25°C° 0.8 mm 3 mps 735 mmHg 80%
    15:00 +25°C° 0.8 mm 2 mps 735 mmHg 81%
    16:00 +25°C° 0.1 mm 2 mps 735 mmHg 82%
    17:00 +25°C° 0.1 mm 2 mps 735 mmHg 83%
    18:00 +24°C° 0.1 mm 2 mps 735 mmHg 84%
    19:00 +23°C° 0.3 mm 2 mps 735 mmHg 85%
    20:00 +21°C° 0.3 mm 2 mps 735 mmHg 86%
    21:00 +21°C° 0.3 mm 1 mps 735 mmHg 87%
    22:00 +21°C° 0.3 mm 1 mps 735 mmHg 88%
    23:00 +20°C° 0.3 mm 1 mps 735 mmHg 88%

    Tomorrow, 19 July, Thursday

    Time Temperature Precipitation Wind Pressure Humidity
    00:00 +20°C° 0.3 mm 1 mps 735 mmHg 89%
    01:00 +20°C° 0.2 mm 1 mps 735 mmHg 90%
    02:00 +20°C° 0.2 mm 1 mps 735 mmHg 90%
    03:00 +19°C° 0.2 mm 1 mps 736 mmHg 91%
    04:00 +20°C° 0.1 mm 1 mps 736 mmHg 90%
    05:00 +20°C° 0.1 mm 2 mps 736 mmHg 90%
    06:00 +20°C° 0.1 mm 2 mps 736 mmHg 89%
    07:00 +23°C° 0.5 mm 2 mps 736 mmHg 85%
    08:00 +24°C° 0.5 mm 2 mps 736 mmHg 81%
    09:00 +25°C° 0.5 mm 3 mps 736 mmHg 77%
    10:00 +26°C° 0.5 mm 3 mps 736 mmHg 74%
    11:00 +27°C° 0.5 mm 4 mps 737 mmHg 70%
    12:00 +27°C° 0.5 mm 4 mps 737 mmHg 67%
    13:00 +28°C° 0.4 mm 4 mps 737 mmHg 68%
    14:00 +28°C° 0.4 mm 4 mps 737 mmHg 68%
    15:00 +28°C° 0.4 mm 3 mps 737 mmHg 68%
    16:00 +27°C° 0.2 mm 3 mps 737 mmHg 71%
    17:00 +27°C° 0.2 mm 2 mps 737 mmHg 74%
    18:00 +27°C° 0.2 mm 1 mps 737 mmHg 77%
    19:00 +25°C° 0.1 mm 1 mps 737 mmHg 79%
    20:00 +23°C° 0.1 mm 1 mps 737 mmHg 82%
    21:00 +22°C° 0.1 mm 1 mps 737 mmHg 84%
    22:00 +22°C° 0.1 mm 1 mps 737 mmHg 85%
    23:00 +20°C° 0.1 mm 2 mps 738 mmHg 86%

    Day after tomorrow, 20 July, Friday

    Time Temperature Precipitation Wind Pressure Humidity
    00:00 +20°C° 0.1 mm 2 mps 738 mmHg 87%
    01:00 +20°C° 0.4 mm 2 mps 738 mmHg 88%
    02:00 +19°C° 0.4 mm 2 mps 738 mmHg 88%
    03:00 +20°C° 0.4 mm 1 mps 738 mmHg 89%
    04:00 +21°C° 0 mm 1 mps 738 mmHg 88%
    05:00 +22°C° 0 mm 1 mps 738 mmHg 86%
    06:00 +23°C° 0 mm 1 mps 738 mmHg 85%
    07:00 +24°C° 0.2 mm 1 mps 739 mmHg 80%
    08:00 +26°C° 0.2 mm 1 mps 739 mmHg 75%
    09:00 +27°C° 0.2 mm 1 mps 739 mmHg 70%
    10:00 +28°C° 0.6 mm 1 mps 739 mmHg 66%
    11:00 +28°C° 0.6 mm 1 mps 739 mmHg 63%
    12:00 +29°C° 0.6 mm 1 mps 739 mmHg 59%
    13:00 +29°C° 0.4 mm 1 mps 739 mmHg 60%
    14:00 +29°C° 0.4 mm 1 mps 739 mmHg 61%
    15:00 +29°C° 0.4 mm 1 mps 739 mmHg 62%
    16:00 +28°C° 0 mm 1 mps 739 mmHg 67%
    17:00 +27°C° 0 mm 1 mps 739 mmHg 71%
    18:00 +27°C° 0 mm 2 mps 739 mmHg 75%
    19:00 +25°C° 0 mm 2 mps 739 mmHg 79%
    20:00 +24°C° 0 mm 2 mps 739 mmHg 82%
    21:00 +21°C° 0 mm 2 mps 739 mmHg 85%
    22:00 +21°C° 0 mm 2 mps 739 mmHg 87%
    23:00 +21°C° 0 mm 2 mps 739 mmHg 88%

    21 July, Saturday

    Time Temperature Precipitation Wind Pressure Humidity
    00:00 +21°C° 0 mm 1 mps 739 mmHg 90%
    01:00 +21°C° 0 mm 1 mps 739 mmHg 90%
    02:00 +21°C° 0 mm 1 mps 739 mmHg 91%
    03:00 +20°C° 0 mm 1 mps 739 mmHg 92%
    04:00 +20°C° 0 mm 2 mps 739 mmHg 91%
    05:00 +21°C° 0 mm 2 mps 739 mmHg 90%
    06:00 +23°C° 0 mm 2 mps 739 mmHg 89%
    07:00 +24°C° 0 mm 3 mps 740 mmHg 85%
    08:00 +25°C° 0 mm 3 mps 740 mmHg 81%
    09:00 +26°C° 0 mm 3 mps 740 mmHg 78%
    10:00 +27°C° 1.4 mm 3 mps 740 mmHg 76%
    11:00 +27°C° 1.4 mm 4 mps 740 mmHg 74%
    12:00 +28°C° 1.4 mm 4 mps 740 mmHg 73%
    13:00 +28°C° 0.7 mm 4 mps 740 mmHg 75%
    14:00 +27°C° 0.7 mm 4 mps 740 mmHg 77%
    15:00 +27°C° 0.7 mm 4 mps 740 mmHg 79%
    16:00 +26°C° 0.1 mm 4 mps 740 mmHg 81%
    17:00 +26°C° 0.1 mm 4 mps 740 mmHg 83%
    18:00 +25°C° 0.1 mm 4 mps 739 mmHg 85%
    19:00 +23°C° 0.2 mm 4 mps 739 mmHg 87%
    20:00 +22°C° 0.2 mm 4 mps 739 mmHg 88%
    21:00 +21°C° 0.2 mm 4 mps 739 mmHg 90%
    22:00 +21°C° 0 mm 4 mps 739 mmHg 90%
    23:00 +20°C° 0 mm 5 mps 739 mmHg 90%

    22 July, Sunday

    Time Temperature Precipitation Wind Pressure Humidity
    00:00 +20°C° 0 mm 5 mps 739 mmHg 90%
    01:00 +19°C° 0.3 mm 4 mps 740 mmHg 90%
    02:00 +19°C° 0.3 mm 4 mps 740 mmHg 91%
    03:00 +18°C° 0.3 mm 4 mps 740 mmHg 91%
    04:00 +18°C° 0 mm 4 mps 740 mmHg 90%
    05:00 +17°C° 0 mm 5 mps 740 mmHg 89%
    06:00 +19°C° 0 mm 5 mps 740 mmHg 88%
    07:00 +20°C° 0 mm 5 mps 740 mmHg 85%
    08:00 +21°C° 0 mm 6 mps 740 mmHg 82%
    09:00 +22°C° 0 mm 6 mps 740 mmHg 79%
    10:00 +23°C° 0 mm 6 mps 740 mmHg 78%
    11:00 +23°C° 0 mm 6 mps 740 mmHg 76%
    12:00 +24°C° 0 mm 6 mps 740 mmHg 75%
    13:00 +24°C° 0 mm 6 mps 740 mmHg 75%
    14:00 +23°C° 0 mm 6 mps 740 mmHg 76%
    15:00 +23°C° 0 mm 6 mps 740 mmHg 76%
    16:00 +23°C° 0 mm 6 mps 740 mmHg 78%
    17:00 +23°C° 0 mm 5 mps 740 mmHg 79%
    18:00 +22°C° 0 mm 5 mps 740 mmHg 81%
    19:00 +21°C° 0.2 mm 5 mps 740 mmHg 82%
    20:00 +21°C° 0.2 mm 5 mps 740 mmHg 83%
    21:00 +20°C° 0.2 mm 5 mps 740 mmHg 84%
    22:00 +19°C° 0.2 mm 5 mps 741 mmHg 84%
    23:00 +19°C° 0.2 mm 5 mps 741 mmHg 84%

    23 July, Monday

    Time Temperature Precipitation Wind Pressure Humidity
    00:00 +17°C° 0.2 mm 5 mps 741 mmHg 84%
    01:00 +16°C° 0.1 mm 5 mps 741 mmHg 83%
    02:00 +16°C° 0.1 mm 5 mps 741 mmHg 81%
    03:00 +15°C° 0.1 mm 5 mps 741 mmHg 80%
    04:00 +15°C° 0 mm 5 mps 742 mmHg 80%
    05:00 +15°C° 0 mm 5 mps 742 mmHg 79%
    06:00 +15°C° 0 mm 5 mps 742 mmHg 79%
    07:00 +16°C° 0 mm 6 mps 742 mmHg 77%
    08:00 +17°C° 0 mm 6 mps 743 mmHg 74%
    09:00 +20°C° 0 mm 6 mps 743 mmHg 72%
    10:00 +20°C° 0 mm 6 mps 743 mmHg 70%
    11:00 +21°C° 0 mm 6 mps 743 mmHg 68%
    12:00 +22°C° 0 mm 6 mps 743 mmHg 66%
    13:00 +22°C° 0 mm 6 mps 743 mmHg 65%
    14:00 +22°C° 0 mm 6 mps 743 mmHg 65%
    15:00 +23°C° 0 mm 5 mps 743 mmHg 64%
    16:00 +22°C° 0 mm 5 mps 743 mmHg 68%
    17:00 +21°C° 0 mm 4 mps 743 mmHg 73%
    18:00 +21°C° 0 mm 3 mps 743 mmHg 77%
    19:00 +19°C° 0 mm 3 mps 743 mmHg 80%
    20:00 +18°C° 0 mm 4 mps 743 mmHg 83%
    21:00 +15°C° 0 mm 4 mps 743 mmHg 86%
    22:00 +14°C° 0 mm 4 mps 744 mmHg 86%
    23:00 +14°C° 0 mm 3 mps 744 mmHg 85%
    Show more